Date String (YYYY-MM-DD hh:mm:ss) UTC,Instrument flags,Ambient pressure (hPa),Sample flow (lpm),Bypass flow (lpm),Sample temperature (°C),Ambient temperature (°C),ASC tube jacket temperature (°C),LED temperature (°C),Box temperature (°C),Sample RH (%),Span deviation,Mass concentration (μg/m³),Mass concentration (μg/m³),Mass concentration (μg/m³)
DateTimeUTC,F1_M11,P_M11,Q1_M11,Q2_M11,T1_M11,T2_M11,T3_M11,T4_M11,T5_M11,U1_M11,ZSPAN_M11,X0_M11,X2_M11,X1_M11
2022-02-08 04:00:00,,0827.6,5.00,0.00,25.8,25.0,00.0,34.9,27.5,05.6,0000.0,0002.41,0000.51,0000.38
2022-02-08 04:01:00,,0827.7,4.99,0.00,25.8,25.0,00.0,34.9,27.5,05.5,0000.0,0002.41,0000.50,0000.38
2022-02-08 04:02:00,,0827.6,5.00,0.00,25.8,25.0,00.0,34.9,27.5,05.5,0000.0,0002.39,0000.49,0000.37
2022-02-08 04:03:00,,0827.6,5.01,0.00,25.8,25.0,00.0,34.9,27.5,05.5,0000.0,0002.33,0000.47,0000.37
2022-02-08 04:04:00,,0827.5,5.00,0.00,25.8,25.0,00.0,34.8,27.6,05.4,0000.0,0002.23,0000.44,0000.36
2022-02-08 04:05:00,,0827.5,4.99,0.00,25.8,25.1,00.0,34.8,27.6,05.4,0000.0,0001.83,0000.41,0000.35
2022-02-08 04:06:00,,0827.6,5.00,0.00,25.8,25.1,00.0,34.8,27.6,05.4,0000.0,0000.54,0000.41,0000.35
2022-02-08 04:07:00,,0827.5,5.01,0.00,25.8,25.1,00.0,34.8,27.6,05.4,0000.0,0000.47,0000.39,0000.35
2022-02-08 04:08:00,,0827.4,5.00,0.00,25.8,25.1,00.0,34.8,27.6,05.4,0000.0,0000.48,0000.39,0000.35
2022-02-08 04:09:00,,0827.5,4.99,0.00,25.8,25.1,00.0,34.8,27.6,05.4,0000.0,0000.51,0000.40,0000.35
2022-02-08 04:10:00,,0827.4,4.99,0.00,25.8,25.1,00.0,34.8,27.6,05.6,0000.0,0000.53,0000.41,0000.36
2022-02-08 04:11:00,,0827.5,5.00,0.00,25.8,25.1,00.0,34.8,27.6,05.9,0000.0,0000.59,0000.43,0000.37
2022-02-08 04:12:00,,0827.5,5.00,0.00,25.8,25.1,00.0,34.8,27.6,05.9,0000.0,0000.60,0000.44,0000.38
2022-02-08 04:13:00,,0827.5,4.99,0.00,25.8,25.1,00.0,34.8,27.6,05.9,0000.0,0000.61,0000.44,0000.38
2022-02-08 04:14:00,,0827.4,5.01,0.00,25.8,25.1,00.0,34.8,27.6,05.9,0000.0,0000.62,0000.45,0000.39
2022-02-08 04:15:00,,0827.4,4.99,0.00,25.8,25.1,00.0,34.8,27.6,05.9,0000.0,0000.64,0000.46,0000.40
2022-02-08 04:16:00,,0827.5,5.01,0.00,25.8,25.0,00.0,34.8,27.5,05.9,0000.0,0000.67,0000.48,0000.41
2022-02-08 04:17:00,,0827.4,4.99,0.00,25.7,25.0,00.0,34.8,27.5,05.8,0000.0,0000.72,0000.49,0000.41
2022-02-08 04:18:00,,0827.5,5.00,0.00,25.7,25.0,00.0,34.8,27.5,05.9,0000.0,0000.71,0000.49,0000.41
2022-02-08 04:19:00,,0827.5,5.01,0.00,25.7,24.9,00.0,34.8,27.4,06.0,0000.0,0000.70,0000.50,0000.42
2022-02-08 04:20:00,,0827.5,4.99,0.00,25.7,24.9,00.0,34.8,27.4,06.0,0000.0,0000.70,0000.50,0000.43
2022-02-08 04:21:00,,0827.5,5.00,0.00,25.7,24.9,00.0,34.8,27.4,05.9,0000.0,0000.73,0000.52,0000.44
2022-02-08 04:22:00,,0827.4,4.99,0.00,25.7,24.9,00.0,34.7,27.4,06.0,0000.0,0000.70,0000.51,0000.44
2022-02-08 04:23:00,,0827.4,5.01,0.00,25.6,24.8,00.0,34.7,27.4,06.0,0000.0,0000.72,0000.51,0000.43
2022-02-08 04:24:00,,0827.4,4.99,0.00,25.6,24.8,00.0,34.7,27.4,06.1,0000.0,0000.78,0000.53,0000.42
2022-02-08 04:25:00,,0827.4,4.99,0.00,25.6,24.8,00.0,34.7,27.4,06.1,0000.0,0000.87,0000.53,0000.42
2022-02-08 04:26:00,,0827.4,5.00,0.00,25.6,24.8,00.0,34.7,27.4,06.1,0000.0,0001.42,0000.57,0000.42
2022-02-08 04:27:00,,0827.4,5.01,0.00,25.6,24.8,00.0,34.7,27.3,06.0,0000.0,0001.44,0000.58,0000.42
2022-02-08 04:28:00,,0827.3,4.99,0.00,25.6,24.8,00.0,34.7,27.3,05.9,0000.0,0001.37,0000.55,0000.41
2022-02-08 04:29:00,,0827.3,5.00,0.00,25.6,24.8,00.0,34.7,27.3,05.8,0000.0,0001.35,0000.54,0000.40
2022-02-08 04:30:00,,0827.3,4.99,0.00,25.6,24.8,00.0,34.7,27.4,05.9,0000.0,0001.33,0000.53,0000.39
2022-02-08 04:31:00,,0827.3,5.02,0.00,25.6,24.8,00.0,34.6,27.4,06.0,0000.0,0001.29,0000.50,0000.37
2022-02-08 04:32:00,,0827.3,4.99,0.00,25.6,24.8,00.0,34.6,27.4,06.1,0000.0,0001.23,0000.48,0000.36
2022-02-08 04:33:00,,0827.6,5.00,0.00,25.6,24.8,00.0,34.6,27.4,05.9,0000.0,0001.20,0000.45,0000.35
2022-02-08 04:34:00,,0827.5,5.01,0.00,25.6,24.8,00.0,34.6,27.3,05.8,0000.0,0001.15,0000.43,0000.34
2022-02-08 04:35:00,,0827.2,4.99,0.00,25.5,24.7,00.0,34.6,27.3,05.9,0000.0,0001.09,0000.41,0000.33
2022-02-08 04:36:00,,0827.2,5.01,0.00,25.5,24.7,00.0,34.6,27.2,06.2,0000.0,0001.08,0000.42,0000.33
2022-02-08 04:37:00,,0827.2,5.00,0.00,25.5,24.6,00.0,34.6,27.2,06.2,0000.0,0000.46,0000.38,0000.33
2022-02-08 04:38:00,,0827.4,5.01,0.00,25.4,24.6,00.0,34.6,27.1,06.3,0000.0,0000.46,0000.37,0000.32
2022-02-08 04:39:00,,0827.2,5.00,0.00,25.4,24.6,00.0,34.5,27.1,06.2,0000.0,0000.49,0000.37,0000.32
2022-02-08 04:40:00,,0827.1,5.00,0.00,25.4,24.5,00.0,34.5,27.1,06.3,0000.0,0000.53,0000.39,0000.32
2022-02-08 04:41:00,,0827.1,4.99,0.00,25.3,24.5,00.0,34.5,27.0,06.4,0000.0,0000.57,0000.41,0000.34
2022-02-08 04:42:00,,0827.1,5.00,0.00,25.3,24.4,00.0,34.5,27.0,06.4,0000.0,0000.63,0000.44,0000.34
2022-02-08 04:43:00,,0827.0,5.00,0.00,25.3,24.3,00.0,34.5,27.0,06.3,0000.0,0000.67,0000.46,0000.35
2022-02-08 04:44:00,,0827.0,5.00,0.00,25.2,24.2,00.0,34.4,26.9,06.4,0000.0,0000.71,0000.48,0000.36
2022-02-08 04:45:00,,0827.0,5.01,0.00,25.2,24.2,00.0,34.4,26.9,06.4,0000.0,0000.73,0000.49,0000.37
2022-02-08 04:46:00,,0827.0,4.99,0.00,25.2,24.2,00.0,34.4,26.9,06.4,0000.0,0000.72,0000.49,0000.37
2022-02-08 04:47:00,,0827.0,5.01,0.00,25.1,24.2,00.0,34.4,26.8,06.5,0000.0,0000.70,0000.47,0000.37
2022-02-08 04:48:00,,0827.1,5.00,0.00,25.1,24.1,00.0,34.3,26.8,06.3,0000.0,0000.70,0000.47,0000.37
2022-02-08 04:49:00,,0827.1,5.01,0.00,25.1,24.1,00.0,34.3,26.7,06.4,0000.0,0000.66,0000.47,0000.37
2022-02-08 04:50:00,,0827.1,4.99,0.00,25.0,24.1,00.0,34.3,26.7,06.5,0000.0,0000.71,0000.49,0000.37
2022-02-08 04:51:00,,0827.1,5.01,0.00,25.0,24.1,00.0,34.2,26.7,06.4,0000.0,0001.09,0000.51,0000.37
2022-02-08 04:52:00,,0827.1,4.99,0.00,25.0,24.1,00.0,34.2,26.7,06.5,0000.0,0001.95,0000.53,0000.37
2022-02-08 04:53:00,,0827.1,5.01,0.00,25.0,24.0,00.0,34.2,26.6,06.5,0000.0,0001.92,0000.51,0000.37
2022-02-08 04:54:00,,0827.2,4.99,0.00,24.9,24.0,00.0,34.2,26.6,06.5,0000.0,0001.88,0000.50,0000.36
2022-02-08 04:55:00,,0827.1,5.02,0.00,24.9,24.0,00.0,34.2,26.6,06.6,0000.0,0001.86,0000.49,0000.36
2022-02-08 04:56:00,,0827.1,4.99,0.00,24.9,24.0,00.0,34.1,26.6,06.7,0000.0,0001.87,0000.49,0000.36
2022-02-08 04:57:00,,0827.1,4.99,0.00,24.9,24.0,00.0,34.1,26.5,06.8,0000.0,0001.91,0000.51,0000.36
2022-02-08 04:58:00,,0827.0,5.01,0.00,24.8,23.9,00.0,34.1,26.5,06.8,0000.0,0001.91,0000.50,0000.35
2022-02-08 04:59:00,,0826.9,4.98,0.00,24.8,23.9,00.0,34.0,26.5,06.6,0000.0,0001.92,0000.51,0000.35
